Location: Tr�vern
(48.0333°N, 4.6000°W)
Time: 17:57:48
(UTC+00:00)

Meteor 1-20 Rocket - Pass Details

Date: 14 July 2020
Orbit: 820 x 891 km, 81.2° (Epoch: 11 August)

Event Time Altitude Azimuth Distance (km) Brightness Sun altitude
Exits shadow 00:58:18 34° 160° (SSE) 1,361 4.8 -19.9°
Maximum altitude 01:00:37 60° 96° (E) 971 4.5 -19.9°
Drops below altitude 10° 01:06:13 10° 18° (NNE) 2,514 7.9 -19.7°
Sets 01:08:42 0° 15° (NNE) 3,466 9.0 -19.6°
